Wind_Speed
32 32 32 31 30 31 32 33 34 33 33 32 33 33 31 31 32 32 32 32 33 33 34 35 35 36 37 38 38 38 39 39 41 41 43 44 44 45 46 48 49 51 52 52
32 32 32 31 31 32 32 33 34 34 33 32 32 33 34 32 31 32 32 32 33 33 34 35 35 36 37 37 37 38 37 38 40 41 42 43 43 43 44 46 48 49 50 52
33 33 33 32 31 32 32 33 33 34 33 33 33 33 34 34 33 32 31 31 31 32 33 34 35 36 36 36 36 37 38 38 39 39 40 42 42 43 44 45 47 48 48 50
34 34 34 33 32 32 32 33 34 34 33 33 33 33 33 33 34 33 32 31 31 31 32 32 33 34 35 35 35 36 37 37 38 39 40 40 40 41 43 44 44 45 46 47
35 35 35 33 33 33 33 33 33 33 33 33 33 33 33 33 33 32 31 31 30 30 31 31 32 32 32 33 34 35 36 36 37 38 39 40 40 41 42 42 42 43 43 44
35 35 35 33 33 33 33 33 32 32 32 31 32 32 32 33 32 31 30 29 28 27 28 28 29 31 31 31 32 32 33 34 35 36 38 38 39 41 42 42 43 42 41 42
34 35 34 33 33 32 32 31 31 31 31 31 30 31 31 32 31 30 29 29 28 27 27 27 27 28 29 30 31 32 32 33 34 35 36 37 38 39 39 40 41 42 41 40
34 33 32 31 31 31 30 30 30 30 30 30 30 29 30 30 29 29 29 29 28 27 26 26 26 27 28 29 30 31 32 33 34 34 35 36 37 37 38 38 39 41 42 41
33 32 31 30 30 30 30 29 29 29 29 29 29 29 29 29 29 29 28 28 28 28 26 26 25 26 27 28 29 30 31 32 32 32 33 35 36 36 37 36 36 37 38 39
31 30 30 30 29 29 28 28 28 29 29 29 29 29 29 29 28 28 28 28 27 27 26 26 25 25 26 27 27 28 29 30 30 30 30 32 33 34 34 35 35 36 36 37
30 29 29 29 29 28 29 29 28 28 28 28 28 28 28 28 27 27 27 27 26 26 26 25 24 25 24 24 25 27 28 29 30 31 31 31 32 33 34 34 34 34 34 35
29 29 29 28 28 28 29 29 29 28 27 27 27 26 26 26 25 25 26 26 25 25 26 26 26 26 25 25 25 25 26 27 28 30 32 32 32 33 34 34 34 34 34 34
28 28 28 28 28 28 28 29 28 28 27 26 26 26 26 25 25 25 25 25 25 24 24 24 25 26 26 25 24 25 25 25 27 28 30 31 32 33 34 34 34 33 33 33
26 27 27 27 27 27 28 27 27 26 26 26 26 26 26 26 25 25 24 24 24 25 24 24 25 25 26 26 25 24 24 25 26 27 28 30 31 32 33 34 33 33 33 33
27 27 27 27 27 27 27 27 26 26 26 25 25 25 25 26 26 26 25 24 24 24 24 24 24 25 25 26 26 26 26 25 26 26 27 28 30 31 32 32 33 33 34 34
26 26 26 26 26 26 26 26 26 26 25 25 25 25 26 26 25 25 25 24 24 23 24 24 24 24 25 26 27 27 27 27 27 27 28 29 29 30 30 31 33 33 33 34
25 25 25 25 25 25 25 25 25 25 25 25 24 24 25 25 25 24 24 24 23 23 24 25 25 26 25 25 26 27 27 27 27 27 28 29 29 29 30 31 32 33 33 33
24 24 24 24 24 25 24 24 24 24 24 24 24 24 24 24 24 24 24 24 23 24 24 25 26 26 26 26 27 27 28 28 28 28 29 29 29 30 30 31 31 32 33 34
24 25 25 25 24 24 24 23 23 23 23 23 23 23 23 23 23 24 24 24 24 23 23 24 25 25 25 26 26 27 27 27 28 29 29 29 29 30 30 30 31 31 32 33
25 25 25 25 24 24 24 23 23 22 22 22 22 22 22 22 22 22 23 23 23 23 23 23 24 24 24 25 25 25 26 26 27 28 28 29 29 30 30 31 31 31 32 32
26 26 26 26 25 24 23 23 23 22 21 21 21 21 21 21 21 21 21 22 22 23 23 23 23 23 24 24 25 25 25 25 26 27 27 28 29 29 30 31 31 31 32 32
26 26 26 25 25 24 24 23 22 22 21 21 21 21 20 20 20 20 20 20 20 20 21 21 22 22 23 24 24 25 25 25 26 26 27 27 28 29 30 30 31 31 32 32
26 26 26 25 25 24 23 22 22 21 21 20 20 20 19 19 19 19 19 19 18 18 19 19 20 21 21 22 23 24 25 25 26 26 27 28 28 29 30 31 31 31 32 32
26 25 25 25 24 23 22 22 22 21 21 20 20 19 19 19 18 18 18 17 17 17 18 19 19 20 21 22 23 24 24 25 25 26 27 27 28 29 29 30 30 31 31 32
26 25 25 24 23 22 22 21 21 21 20 19 19 19 19 19 18 17 17 17 17 17 17 18 18 19 20 21 21 22 23 24 24 25 26 27 27 28 29 30 30 31 31 31
26 25 24 23 23 22 21 21 20 19 19 19 19 19 18 18 17 17 17 17 17 17 17 17 17 18 18 19 20 21 22 23 24 25 25 26 27 28 28 28 29 30 30 30
24 23 23 22 22 21 21 20 19 19 19 19 19 19 19 18 17 17 17 17 17 17 17 18 18 18 18 19 19 20 21 22 23 24 25 25 26 26 27 27 28 28 28 29
Wind_Direction
292 291 288 284 283 282 283 284 284 283 281 279 278 278 277 277 276 276 278 275 271 271 269 266 263 259 257 256 254 253 253 250 249 247 245 243 243 242 242 242 242 243 242 243
292 291 288 284 282 280 281 282 283 283 282 279 277 276 277 278 278 277 277 275 274 272 269 266 263 260 258 256 255 253 252 250 249 248 246 243 242 242 243 243 243 244 244 245
292 291 289 286 284 282 281 281 283 283 283 281 277 276 278 279 279 279 277 276 274 271 270 267 263 261 259 258 256 253 251 249 248 246 245 244 244 244 245 245 244 244 245 245
292 292 290 291 288 284 283 282 282 282 282 281 279 277 277 278 279 278 278 276 274 272 270 268 264 261 258 258 257 255 253 251 249 248 247 246 246 245 246 245 246 246 245 245
292 292 291 290 289 287 286 285 284 284 283 281 279 277 277 278 278 276 277 275 273 272 270 267 264 261 258 256 256 255 255 253 250 249 248 247 247 245 245 247 248 248 247 247
292 292 292 292 290 289 288 287 286 285 284 283 281 278 278 278 279 277 274 274 273 272 269 266 263 260 257 254 253 253 253 253 251 251 249 249 249 247 248 250 249 249 248 247
292 291 292 292 291 291 288 289 289 287 284 282 281 280 279 279 279 279 276 273 272 272 270 267 262 260 257 254 251 251 252 251 250 250 250 250 249 247 247 248 248 248 248 248
291 291 292 292 291 290 290 289 289 288 286 282 280 279 279 278 278 277 276 273 271 271 270 267 263 259 256 254 252 251 252 250 249 249 249 251 252 250 249 248 248 249 250 250
291 291 291 290 291 290 290 290 289 287 286 284 280 278 278 278 277 276 276 275 271 269 268 266 264 260 256 255 253 252 251 250 250 250 251 251 252 251 250 248 247 249 249 249
289 290 289 289 289 289 289 290 289 287 286 286 282 279 278 278 277 276 275 275 273 268 266 265 264 262 259 256 255 253 252 251 249 249 251 252 251 251 250 250 250 251 250 250
290 290 287 287 288 288 288 288 289 289 286 284 282 279 278 278 277 275 274 274 272 268 265 263 261 259 258 257 256 254 253 252 249 249 250 251 251 251 252 253 253 253 252 251
291 290 288 286 287 287 287 287 288 288 287 283 280 280 279 279 278 276 273 271 270 268 266 264 261 259 259 258 257 255 253 252 251 251 251 252 252 252 252 253 253 254 253 253
292 290 288 286 286 288 288 287 288 287 285 283 280 279 279 279 278 278 275 273 270 268 268 265 261 259 259 258 257 255 253 253 253 254 253 252 252 253 252 252 254 254 254 254
295 292 289 288 288 288 289 288 287 286 285 284 282 281 279 278 279 279 276 274 273 270 268 265 260 259 258 257 257 256 256 255 256 256 257 255 254 255 254 253 253 253 254 255
295 294 291 290 289 289 289 289 288 287 285 284 283 282 280 279 278 278 277 277 275 272 268 266 263 260 258 258 258 259 259 259 258 258 257 257 257 257 256 253 252 253 254 255
296 295 293 291 290 289 289 289 288 287 286 286 285 282 281 280 279 277 277 277 276 272 269 267 265 263 261 259 259 260 260 260 259 259 258 257 258 257 257 255 253 253 255 255
298 297 295 293 292 292 292 291 290 289 287 286 285 284 283 281 279 278 277 277 277 274 271 268 266 264 261 260 259 259 260 260 259 259 259 258 258 257 258 257 255 253 254 255
299 298 297 296 295 294 293 293 292 290 288 287 286 286 284 283 281 279 276 276 277 276 273 269 266 264 261 260 260 260 260 260 260 260 259 259 257 257 258 258 257 256 255 255
301 301 300 299 297 295 295 294 293 292 290 287 286 286 286 284 283 280 277 276 276 276 274 271 268 265 263 261 262 261 262 261 262 261 260 258 257 256 257 258 257 257 257 256
300 300 300 299 298 296 294 294 295 294 292 289 288 287 287 286 285 282 279 278 277 274 272 271 268 266 263 262 263 263 262 262 262 262 260 258 256 256 256 256 257 257 258 257
299 299 299 298 296 294 294 295 295 294 292 291 290 289 288 288 287 284 283 281 279 275 272 270 269 266 264 263 264 264 265 264 264 264 262 260 258 257 257 257 257 258 258 258
298 298 297 297 296 293 292 293 294 293 293 292 292 291 289 289 289 288 286 284 281 278 274 271 269 267 266 264 264 265 265 265 264 264 263 262 261 259 259 259 260 260 259 258
298 297 297 296 295 293 291 291 292 294 293 293 292 291 290 289 290 290 288 286 284 280 277 275 272 270 267 265 265 266 266 265 265 265 264 263 263 263 262 261 261 262 261 260
299 299 297 296 294 292 290 290 291 292 292 291 291 291 290 290 290 289 288 286 284 281 278 277 275 273 271 268 268 267 268 267 267 266 265 264 264 264 265 264 263 263 262 260
299 298 297 295 294 292 290 290 291 291 290 289 289 290 290 289 288 287 286 285 285 285 283 281 278 276 274 272 270 270 269 269 268 267 266 266 266 266 267 266 265 265 263 262
300 298 296 295 294 292 291 289 289 289 289 289 289 290 290 288 287 286 285 285 285 285 285 285 284 282 279 277 274 272 272 272 271 270 270 269 269 269 268 268 267 266 264 263
302 299 296 294 293 292 290 289 288 287 287 288 289 288 287 286 285 285 285 285 284 285 285 286 286 286 285 284 282 280 278 276 274 273 271 271 270 270 270 270 269 268 266 265
Height
5573 5570 5568 5566 5565 5562 5560 5558 5556 5556 5554 5554 5551 5550 5549 5548 5547 5546 5545 5545 5544 5544 5544 5544 5544 5545 5546 5548 5550 5551 5553 5555 5558 5561 5564 5568 5571 5576 5581 5586 5591 5596 5602 5607
5565 5562 5559 5558 5556 5554 5552 5550 5548 5547 5547 5545 5543 5541 5540 5539 5538 5538 5537 5536 5536 5535 5534 5534 5535 5536 5537 5539 5540 5542 5544 5546 5548 5551 5554 5558 5562 5566 5571 5575 5579 5584 5589 5593
5556 5554 5551 5550 5549 5546 5544 5542 5540 5538 5538 5536 5535 5533 5532 5531 5530 5529 5528 5528 5527 5526 5525 5525 5525 5526 5528 5529 5530 5532 5535 5537 5539 5542 5546 5549 5553 5556 5560 5564 5567 5572 5576 5579
5546 5545 5542 5544 5539 5537 5535 5534 5531 5529 5528 5527 5526 5524 5523 5522 5521 5520 5519 5519 5518 5517 5516 5516 5516 5517 5518 5520 5521 5523 5525 5527 5530 5533 5537 5539 5543 5546 5549 5552 5556 5559 5562 5565
5537 5534 5533 5533 5531 5527 5526 5524 5522 5520 5519 5518 5516 5515 5515 5513 5512 5511 5510 5509 5509 5508 5508 5508 5508 5508 5509 5511 5513 5514 5516 5518 5521 5524 5527 5530 5532 5535 5538 5541 5544 5547 5550 5553
5528 5525 5524 5525 5521 5518 5517 5515 5514 5511 5510 5508 5507 5506 5506 5504 5503 5502 5501 5500 5500 5500 5499 5499 5499 5500 5501 5503 5504 5506 5507 5509 5512 5514 5517 5520 5523 5525 5528 5531 5533 5536 5539 5542
5520 5516 5515 5515 5512 5510 5509 5508 5505 5502 5501 5499 5498 5497 5496 5495 5494 5493 5492 5492 5491 5491 5491 5491 5491 5491 5493 5494 5496 5497 5499 5501 5503 5505 5508 5511 5514 5516 5518 5521 5523 5526 5529 5531
5511 5508 5510 5506 5503 5502 5500 5498 5496 5494 5492 5491 5490 5488 5487 5486 5485 5484 5484 5483 5483 5483 5483 5482 5483 5483 5484 5486 5488 5489 5491 5493 5495 5497 5500 5502 5505 5507 5509 5511 5514 5516 5518 5521
5504 5503 5500 5497 5495 5493 5491 5490 5488 5486 5485 5483 5482 5481 5480 5478 5477 5476 5476 5475 5475 5475 5475 5475 5475 5475 5477 5478 5479 5481 5483 5485 5487 5489 5491 5493 5496 5498 5500 5502 5504 5506 5508 5511
5495 5494 5491 5489 5487 5485 5483 5482 5480 5479 5477 5475 5474 5473 5472 5471 5469 5468 5468 5467 5467 5467 5467 5467 5467 5468 5469 5470 5471 5473 5474 5476 5479 5481 5483 5485 5487 5489 5491 5493 5495 5497 5499 5501
5486 5485 5483 5482 5479 5478 5476 5474 5472 5471 5469 5467 5466 5465 5463 5463 5462 5461 5460 5459 5459 5459 5459 5460 5460 5460 5461 5462 5463 5465 5466 5468 5470 5472 5474 5476 5478 5480 5482 5484 5486 5488 5490 5491
5479 5477 5475 5474 5472 5470 5468 5466 5465 5463 5461 5460 5458 5457 5456 5455 5454 5453 5452 5452 5452 5451 5452 5452 5452 5453 5453 5454 5456 5457 5459 5460 5462 5464 5466 5468 5470 5472 5473 5475 5477 5479 5480 5482
5471 5469 5467 5465 5464 5462 5460 5459 5457 5455 5453 5452 5451 5449 5448 5447 5447 5446 5445 5444 5444 5444 5444 5444 5445 5446 5446 5447 5448 5450 5451 5452 5454 5456 5457 5459 5461 5463 5465 5467 5468 5470 5472 5473
5463 5462 5460 5458 5456 5454 5452 5451 5449 5447 5446 5444 5443 5442 5441 5440 5439 5438 5438 5437 5437 5436 5436 5436 5437 5438 5439 5440 5441 5442 5443 5445 5446 5447 5449 5451 5452 5454 5456 5458 5460 5461 5463 5465
5457 5454 5453 5451 5449 5447 5445 5443 5442 5440 5438 5437 5436 5434 5433 5433 5432 5431 5430 5429 5429 5429 5429 5429 5429 5430 5431 5432 5433 5434 5436 5437 5438 5440 5441 5442 5444 5445 5447 5449 5451 5452 5454 5456
5450 5447 5445 5443 5442 5440 5438 5436 5434 5432 5431 5429 5428 5427 5426 5425 5424 5423 5423 5422 5422 5421 5421 5421 5422 5422 5423 5424 5425 5427 5428 5429 5430 5431 5432 5434 5435 5436 5438 5439 5441 5443 5445 5446
5443 5441 5438 5436 5435 5432 5430 5428 5426 5425 5423 5422 5421 5419 5418 5417 5416 5416 5415 5414 5414 5414 5413 5413 5414 5414 5415 5416 5417 5418 5419 5420 5421 5422 5423 5425 5426 5427 5429 5430 5432 5434 5436 5437
5436 5434 5431 5429 5427 5425 5423 5421 5419 5417 5416 5414 5413 5412 5411 5410 5409 5408 5408 5407 5406 5406 5405 5405 5405 5406 5407 5407 5409 5410 5411 5412 5413 5413 5414 5416 5417 5418 5420 5421 5423 5425 5426 5428
5430 5428 5425 5423 5420 5418 5416 5414 5412 5410 5408 5407 5406 5405 5403 5402 5401 5400 5399 5399 5399 5398 5398 5397 5397 5398 5398 5399 5400 5401 5402 5403 5404 5405 5405 5406 5408 5409 5411 5413 5414 5415 5417 5418
5424 5421 5419 5416 5414 5412 5410 5407 5405 5404 5402 5400 5399 5397 5396 5395 5393 5392 5392 5391 5390 5390 5390 5389 5390 5390 5391 5391 5392 5393 5393 5394 5395 5396 5397 5398 5399 5400 5402 5403 5405 5406 5407 5409
5417 5414 5412 5409 5407 5405 5403 5401 5399 5397 5395 5393 5392 5390 5389 5388 5386 5385 5384 5383 5382 5382 5382 5382 5382 5382 5383 5383 5384 5385 5385 5386 5387 5387 5388 5389 5390 5391 5392 5394 5395 5397 5398 5399
5409 5407 5404 5402 5400 5398 5396 5394 5392 5390 5389 5387 5385 5384 5382 5381 5380 5378 5377 5376 5375 5374 5374 5374 5374 5375 5375 5376 5376 5377 5377 5378 5378 5379 5380 5381 5381 5382 5383 5384 5385 5386 5388 5389
5402 5399 5397 5394 5392 5390 5389 5387 5385 5384 5382 5381 5379 5378 5376 5375 5374 5372 5371 5370 5369 5368 5368 5367 5367 5367 5367 5368 5368 5369 5369 5370 5370 5371 5371 5372 5373 5373 5374 5375 5375 5376 5377 5378
5394 5392 5389 5387 5385 5383 5382 5380 5378 5377 5375 5374 5373 5371 5370 5369 5368 5366 5365 5364 5363 5362 5362 5361 5361 5361 5360 5361 5361 5361 5361 5361 5362 5362 5363 5363 5364 5364 5365 5365 5365 5366 5366 5367
5387 5384 5382 5379 5378 5376 5374 5373 5372 5370 5369 5368 5367 5366 5364 5363 5362 5361 5360 5358 5358 5357 5356 5355 5355 5354 5354 5353 5353 5353 5353 5354 5354 5354 5354 5355 5355 5355 5355 5356 5356 5356 5356 5357
5379 5376 5374 5372 5370 5369 5367 5366 5365 5364 5363 5362 5361 5360 5358 5357 5356 5355 5354 5353 5352 5351 5351 5350 5349 5348 5347 5347 5346 5346 5346 5346 5346 5346 5346 5346 5346 5346 5346 5346 5346 5346 5346 5347
5371 5369 5367 5365 5363 5362 5360 5359 5358 5357 5356 5355 5355 5354 5353 5351 5350 5350 5349 5348 5347 5346 5345 5344 5343 5342 5341 5341 5340 5339 5339 5338 5338 5337 5337 5337 5337 5337 5337 5337 5337 5337 5337 5337